User: anonymous   Login
Location: Asheville, NC
(35.6000°N, 82.5500°W)
Time: 17:12:01
(UTC-04:00)
Language:

BEESAT 2 - Orbit

View from above orbital plane
View from above orbital plane
View from above satellite
View from above satellite

Ground track
Ground track

The orbit data is extracted from the following two-line orbital elements,

1 39136U 13015G   18168.38954956  .00000568  00000-0  39368-4 0  9997
2 39136  64.8682 142.3998 0022443 237.2763 122.6199 15.16154668284624
Epoch (UTC): 17 June 2018 09:20:57
Eccentricity: 0.0022443
inclination: 64.8682°
perigee height: 502 km
apogee height: 533 km
right ascension of ascending node: 142.3998°
argument of perigee: 237.2763°
revolutions per day: 15.16154668
mean anomaly at epoch: 122.6199°
orbit number at epoch: 28462

The dashed part of the orbit path shows where the satellite is in the earth's shadow,  

DLR